Location: Maccacari
(45.1333°N, 11.1333°E)
Time: 00:54:22
(UTC+00:00)

Vanguard 2 - Pass Details

Date: 29 January 2021
Orbit: 552 x 2938 km, 32.9° (Epoch: 05 March)

Event Time Altitude Azimuth Distance (km) Brightness Sun altitude
Rises 13:55:16 0° 224° (SW) 3,223 12.4 18.8°
Reaches altitude 10° 13:59:19 10° 194° (SSW) 2,003 11.1 18.4°
Maximum altitude 14:01:05 12° 170° (S) 1,773 10.2 18.2°
Drops below altitude 10° 14:02:46 10° 145° (SE) 1,854 9.8 18.0°
Sets 14:06:09 0° 113° (ESE) 2,713 10.2 17.6°
